Charlottetown, Prince Edward Island

12:45 AM ADT on July 28, 2017 (GMT -0300)
Charlottetown

Weather History for CYYG - May, 2013

Change the Weather History Date:

Friday, May 10, 2013

  Actual Average Record
Temperature  
Mean Temperature 58 °F -  
Max Temperature 64 °F 60 °F 68 °F (1999)
Min Temperature 51 °F 42 °F 32 °F (1997)
Degree Days  
Heating Degree Days 6    
Growing Degree Days 8 (Base 50)    
Moisture  
Dew Point 56 °F    
Average Humidity 94    
Maximum Humidity 100    
Minimum Humidity 81    
Precipitation  
Precipitation 0.01 in 0.12 in - ()
Sea Level Pressure  
Sea Level Pressure 29.97 in    
Wind  
Wind Speed 10 mph ()    
Max Wind Speed 16 mph    
Max Gust Speed 17 mph    
Visibility 13.3 miles    
Events Fog , Rain    
Averages and records for this station are not official NWS values.
T = Trace of Precipitation, MM = Missing Value Source: Averaged Metar Reports

Daily Weather History Graph

Daily Weather History Graph

Search for Another Location

Airport or City:

Trip Planner

Search our weather history database for the weather conditions in past years. The results will help you decide how hot, cold, wet, or windy it might be!

Date:

Astronomy

May. 10, 2013 Rise Set
Actual Time 5:45 AM ADT 8:33 PM ADT
Civil Twilight 5:10 AM ADT 9:07 PM ADT
Nautical Twilight 4:26 AM ADT 9:52 PM ADT
Astronomical Twilight 3:35 AM ADT 10:44 PM ADT
Moon 6:06 AM ADT (5/10) 9:19 PM ADT (5/10)
Length of Visible Light 15h 57m
Length of Day
14h 47m
New Moon, 0% of the Moon is Illuminated
May 10
New Moon
May 18
First Quarter
May 25
Full
May 31
Last Quarter
Jun 8
New

Hourly Weather History & Observations

Time (ADT) Temp. Dew Point Humidity Pressure Visibility Wind Dir Wind Speed Gust Speed Precip Events Conditions
12:00 AM 55.4 °F 55.4 °F 100% 30.03 in 15.0 mi South 12.7 mph - N/A   Overcast
1:00 AM 55.4 °F 55.4 °F 100% 30.01 in 15.0 mi South 16.1 mph - N/A   Overcast
2:00 AM 55.4 °F 55.4 °F 100% 30.00 in 15.0 mi South 12.7 mph - N/A   Overcast
3:00 AM 54 °F 54 °F 100% 29.99 in 15 mi South 11.5 mph - -   Partly Cloudy
3:00 AM 53.6 °F 53.6 °F 100% 29.99 in 15.0 mi South 12.7 mph - N/A   Overcast
4:00 AM 53.6 °F 53.6 °F 100% 29.98 in 15.0 mi South 13.8 mph - N/A   Overcast
5:00 AM 55.4 °F 55.4 °F 100% 29.97 in 15.0 mi South 11.5 mph 17.3 mph N/A   Overcast
6:00 AM 53.6 °F 53.6 °F 100% 29.97 in 15.0 mi South 11.5 mph - N/A   Overcast
7:00 AM 55.4 °F 55.4 °F 100% 29.96 in 12.0 mi South 15.0 mph - N/A   Overcast
8:00 AM 55.4 °F 55.4 °F 100% 29.96 in 10.0 mi South 10.4 mph - N/A   Overcast
8:44 AM 57.2 °F 55.4 °F 94% 29.97 in 12.0 mi SSW 12.7 mph - N/A Fog Mostly Cloudy
9:00 AM 57 °F 56 °F 95% 29.97 in 12 mi South 11.5 mph - - Fog Light Fog
9:00 AM 57.2 °F 55.4 °F 94% 29.97 in 12.0 mi South 13.8 mph - N/A Fog Mostly Cloudy
9:06 AM 57.2 °F 55.4 °F 94% 29.97 in 0.6 mi South 12.7 mph - N/A   Mostly Cloudy
9:22 AM 57.2 °F 55.4 °F 94% 29.98 in 6.0 mi South 10.4 mph - N/A   Overcast
10:00 AM 57.2 °F 55.4 °F 94% 29.98 in 10.0 mi South 10.4 mph - N/A Rain Light Rain Showers
10:17 AM 59.0 °F 57.2 °F 94% 29.97 in 10.0 mi SSE 10.4 mph - N/A   Mostly Cloudy
11:00 AM 59.0 °F 55.4 °F 88% 29.96 in 15.0 mi South 6.9 mph - N/A   Mostly Cloudy
12:00 PM 59.0 °F 55.4 °F 88% 29.97 in 15.0 mi South 10.4 mph - N/A   Overcast
12:15 PM 59.0 °F 55.4 °F 88% 29.96 in 15.0 mi South 10.4 mph - N/A Rain Light Rain Showers
1:00 PM 60.8 °F 57.2 °F 88% 29.96 in 15.0 mi South 9.2 mph - N/A Rain Light Rain Showers
2:00 PM 59.0 °F 57.2 °F 94% 29.94 in 15.0 mi South 11.5 mph - N/A Fog , Rain Light Rain Showers
2:44 PM 62.6 °F 59.0 °F 88% 29.94 in 15.0 mi South 13.8 mph - N/A Fog Mostly Cloudy
3:00 PM 63 °F 59 °F 81% 29.94 in 15 mi South 12.7 mph - - Fog Light Fog
3:00 PM 62.6 °F 59.0 °F 88% 29.94 in 15.0 mi South 12.7 mph - N/A Fog Mostly Cloudy
4:00 PM 62.6 °F 59.0 °F 88% 29.93 in 15.0 mi South 13.8 mph - N/A Fog Mostly Cloudy
5:00 PM 62.6 °F 59.0 °F 88% 29.94 in 15.0 mi South 11.5 mph - N/A   Mostly Cloudy
5:56 PM 60.8 °F 59.0 °F 94% 29.94 in 15.0 mi South 6.9 mph - N/A Rain Light Rain Showers
6:00 PM 60.8 °F 59.0 °F 94% 29.94 in 15.0 mi South 5.8 mph - N/A Rain Light Rain Showers
6:43 PM 60.8 °F 59.0 °F 94% 29.94 in 15.0 mi South 5.8 mph - N/A   Mostly Cloudy
7:00 PM 60.8 °F 59.0 °F 94% 29.93 in 15.0 mi SSE 4.6 mph - N/A   Mostly Cloudy
8:00 PM 60.8 °F 59.0 °F 94% 29.94 in 15.0 mi South 5.8 mph - N/A   Mostly Cloudy
9:00 PM 59 °F 57 °F 91% 29.96 in 15 mi South 4.6 mph - -   Partly Cloudy
9:00 PM 59.0 °F 57.2 °F 94% 29.96 in 15.0 mi South 4.6 mph - N/A   Mostly Cloudy
10:00 PM 53.6 °F 53.6 °F 100% 29.98 in 15.0 mi Calm Calm - N/A   Scattered Clouds
11:00 PM 55.4 °F 55.4 °F 100% 29.99 in 15.0 mi North 6.9 mph - N/A   Mostly Cloudy
11:19 PM 51.8 °F 51.8 °F 100% 29.99 in 1.0 mi North 6.9 mph - N/A   Mist